TimeMDT,TemperatureF,Dew PointF,Humidity,Sea Level PressureIn,VisibilityMPH,Wind Direction,Wind SpeedMPH,Gust SpeedMPH,PrecipitationIn,Events,Conditions,WindDirDegrees,DateUTC
12:53 AM,43.0,28.0,56,29.99,10.0,Calm,Calm,-,N/A,,Overcast,0,2013-03-30 06:53:00
1:53 AM,39.9,28.0,63,30.01,10.0,North,3.5,-,N/A,,Overcast,10,2013-03-30 07:53:00
2:53 AM,41.0,26.1,55,30.00,10.0,Variable,4.6,-,N/A,,Overcast,0,2013-03-30 08:53:00
3:51 AM,37.4,32.0,81,30.10,9.0,Variable,6.9,-,0.01,Rain,Light Rain,0,2013-03-30 09:51:00
3:53 AM,37.0,32.0,82,30.04,10.0,NW,5.8,-,0.01,Rain,Light Rain,310,2013-03-30 09:53:00
4:23 AM,35.6,33.8,93,30.08,10.0,SW,3.5,-,0.00,,Overcast,220,2013-03-30 10:23:00
4:53 AM,36.0,32.0,86,30.01,10.0,Variable,4.6,-,0.00,,Overcast,0,2013-03-30 10:53:00
5:53 AM,36.0,30.9,82,30.01,10.0,WNW,4.6,-,N/A,,Scattered Clouds,290,2013-03-30 11:53:00
6:53 AM,35.1,28.9,78,30.04,10.0,NW,4.6,-,N/A,,Scattered Clouds,310,2013-03-30 12:53:00
7:53 AM,36.0,28.9,76,30.06,10.0,WNW,4.6,-,N/A,,Overcast,300,2013-03-30 13:53:00
8:53 AM,39.9,30.0,68,30.05,10.0,NW,4.6,-,N/A,,Overcast,310,2013-03-30 14:53:00
9:53 AM,44.1,30.0,58,30.03,10.0,West,11.5,19.6,N/A,,Overcast,280,2013-03-30 15:53:00
10:53 AM,46.0,26.1,46,30.03,10.0,West,15.0,20.7,N/A,,Mostly Cloudy,280,2013-03-30 16:53:00
11:53 AM,48.0,21.9,36,30.02,10.0,West,15.0,19.6,N/A,,Scattered Clouds,270,2013-03-30 17:53:00
12:53 PM,46.9,21.9,37,29.99,10.0,WNW,15.0,25.3,N/A,,Overcast,290,2013-03-30 18:53:00
1:53 PM,41.0,35.1,79,30.05,10.0,WSW,4.6,-,0.01,,Mostly Cloudy,250,2013-03-30 19:53:00
2:22 PM,44.6,28.4,53,30.05,10.0,West,16.1,24.2,N/A,,Scattered Clouds,280,2013-03-30 20:22:00
2:53 PM,46.9,21.9,37,30.00,10.0,WNW,13.8,32.2,N/A,,Partly Cloudy,300,2013-03-30 20:53:00
3:53 PM,39.0,28.9,67,30.09,10.0,NNW,13.8,28.8,N/A,,Mostly Cloudy,340,2013-03-30 21:53:00
4:53 PM,42.1,33.1,70,30.06,10.0,Variable,3.5,-,0.01,,Clear,0,2013-03-30 22:53:00
5:53 PM,42.1,27.0,55,30.07,10.0,NW,6.9,-,N/A,,Mostly Cloudy,320,2013-03-30 23:53:00
6:53 PM,39.9,23.0,51,30.09,10.0,NW,6.9,-,N/A,,Clear,310,2013-03-31 00:53:00
7:53 PM,36.0,26.1,67,30.11,10.0,WNW,8.1,16.1,N/A,,Clear,300,2013-03-31 01:53:00
8:53 PM,36.0,24.1,62,30.11,10.0,NW,5.8,-,N/A,,Clear,310,2013-03-31 02:53:00
9:53 PM,35.1,25.0,67,30.11,10.0,WNW,6.9,-,N/A,,Clear,300,2013-03-31 03:53:00
10:53 PM,34.0,26.1,73,30.11,10.0,WNW,5.8,-,N/A,,Clear,290,2013-03-31 04:53:00
11:53 PM,26.1,23.0,88,30.13,10.0,Calm,Calm,-,N/A,,Clear,0,2013-03-31 05:53:00